sat.trackr.live / text

‹ back to catalog

HULIANWANG DIGUI-89

NORAD 65997 · 2025-231C

PAYLOAD ACTIVE UNKNOWN

§ Identity

Operator
Country
PRC
Launch date
2025-10-16
Launch site
WSC
Launch vehicle
Mass (kg)
RCS (m²)

External: N2YO · Heavens-Above · Gunter

§ Orbital elements

Epoch: 2026-09-20T22:26:48.966144Z

Period
108.33 min
Inclination
49.9956°
Eccentricity
0.0000408
Mean motion
13.29327619 rev/d
Perigee alt
1,149.0 km
Apogee alt
1,149.6 km
Semi-major
7,527.4 km
B*
3.4727e-5
RAAN
192.2422°
Arg perigee
60.9051°
Mean anomaly
299.1862°
Rev number
4,562

§ Raw data

HULIANWANG DIGUI-891 65997U 25231C   26263.93528896 -.00000108  00000+0  34727-4 0  99942 65997  49.9956 192.2422 0000408  60.9051 299.1862 13.29327619 45622

JSON: /api/v1/satellites/65997 · /tle

For live sub-satellite position, see the globe view (requires WebGL).

§ Visibility from observer

Set your observer location to see the next 7 days of passes ≥ 10°. The values pass through the URL so the page stays shareable.

No JS? Fill the form by hand. The geolocation button needs JavaScript.